Voltar ao catálogo

COSMOS 886 DEB

AtivoLEO
NORAD 9653·DEBRIS·🇷🇺 Russia

Lançado Dec 27, 1976 de Baikonur Cosmodrome

Loading…

Próximas Passagens (próximas 24 horas)

TLE

AtualizadoSource: Space-Track

Época: Sep 14, 2026, 04:59 UTC

1 09653U 76126K   26257.20791969  .00001256  00000-0  50067-3 0  9995
2 09653  65.7691 336.5154 0777377 135.8403 230.7462 13.30613352355888

Acompanhe COSMOS 886 DEB em tempo real com AllMySat

Download on the App Store